Location: Unspecified
(49.2170°N, 0.0000°E)
Time: 19:12:09
(UTC+00:00)

ISS - Visible Passes

Search period start: 25 November 2020 00:00
Search period end: 05 December 2020 00:00
Orbit: 418 x 421 km, 51.6° (Epoch: 26 November)

Date Brightness Start Highest point End Pass type
(mag) Time Alt. Az. Time Alt. Az. Time Alt. Az.
25 Nov -3.9 17:56:58 10° WSW 18:00:21 89° NNW 18:00:56 58° ENE visible
26 Nov -3.7 17:09:32 10° WSW 17:12:53 69° SSE 17:15:21 17° ENE visible
26 Nov -1.8 18:46:28 10° W 18:48:19 29° WNW 18:48:19 29° WNW visible
27 Nov -3.6 17:58:54 10° W 18:02:14 61° N 18:02:42 53° NNE visible
28 Nov -3.7 17:11:20 10° W 17:14:42 71° NNW 17:17:04 18° ENE visible
28 Nov -1.6 18:48:24 10° WNW 18:50:01 25° WNW 18:50:01 25° WNW visible
29 Nov -3.5 18:00:51 10° WNW 18:04:10 54° N 18:04:23 52° NNE visible
30 Nov -3.5 17:13:15 10° W 17:16:35 55° N 17:18:46 19° ENE visible
30 Nov -1.5 18:50:14 10° WNW 18:51:43 24° WNW 18:51:43 24° WNW visible
01 Dec -3.7 18:02:41 10° WNW 18:06:02 63° N 18:06:07 63° NNE visible
02 Dec -3.5 17:15:06 10° WNW 17:18:26 56° N 17:20:34 20° E visible
02 Dec -1.4 18:51:58 10° WNW 18:53:31 25° W 18:53:31 25° W visible
03 Dec -3.9 18:04:24 10° WNW 18:07:47 85° SSW 18:08:02 75° SE visible
04 Dec -3.8 17:16:50 10° WNW 17:20:13 76° NNE 17:22:38 18° E visible
04 Dec -1.3 18:53:50 10° W 18:55:36 23° WSW 18:55:36 23° WSW visible
